Hourly Weather Bolshie Klyuchi

Today, 15 June, Tuesday

Time Temperature Precipitation Wind Pressure Humidity
00:00 +19°C° 0 mm 1 mps 750 mmHg 88%
01:00 +16°C° 0 mm 0 mps 750 mmHg 89%
02:00 +16°C° 0 mm 0 mps 750 mmHg 89%
03:00 +16°C° 0 mm 0 mps 750 mmHg 89%
04:00 +17°C° 0 mm 0 mps 750 mmHg 86%
05:00 +18°C° 0 mm 0 mps 751 mmHg 83%
06:00 +19°C° 0 mm 0 mps 751 mmHg 80%
07:00 +21°C° 0 mm 0 mps 751 mmHg 75%
08:00 +24°C° 0 mm 1 mps 751 mmHg 70%
09:00 +25°C° 0 mm 1 mps 751 mmHg 64%
10:00 +24°C° 0.4 mm 1 mps 751 mmHg 72%
11:00 +23°C° 0.4 mm 1 mps 751 mmHg 80%
12:00 +22°C° 0.4 mm 1 mps 751 mmHg 88%
13:00 +22°C° 0.1 mm 1 mps 751 mmHg 86%
14:00 +22°C° 0.1 mm 1 mps 750 mmHg 83%
15:00 +22°C° 0.1 mm 1 mps 750 mmHg 81%
16:00 +23°C° 0 mm 1 mps 750 mmHg 79%
17:00 +24°C° 0 mm 2 mps 749 mmHg 77%
18:00 +25°C° 0 mm 2 mps 749 mmHg 76%
19:00 +23°C° 0.4 mm 2 mps 749 mmHg 80%
20:00 +21°C° 0.4 mm 2 mps 749 mmHg 83%
21:00 +20°C° 0.4 mm 2 mps 749 mmHg 87%
22:00 +20°C° 0.5 mm 2 mps 749 mmHg 88%
23:00 +19°C° 0.5 mm 2 mps 748 mmHg 88%

Tomorrow, 16 June, Wednesday

Time Temperature Precipitation Wind Pressure Humidity
00:00 +20°C° 0.5 mm 1 mps 748 mmHg 89%
01:00 +19°C° 0 mm 2 mps 748 mmHg 88%
02:00 +19°C° 0 mm 2 mps 747 mmHg 88%
03:00 +19°C° 0 mm 2 mps 747 mmHg 87%
04:00 +19°C° 0 mm 2 mps 747 mmHg 86%
05:00 +20°C° 0 mm 2 mps 747 mmHg 84%
06:00 +21°C° 0 mm 2 mps 746 mmHg 82%
07:00 +24°C° 0 mm 2 mps 746 mmHg 75%
08:00 +25°C° 0 mm 3 mps 746 mmHg 68%
09:00 +27°C° 0 mm 4 mps 746 mmHg 61%
10:00 +28°C° 0 mm 4 mps 745 mmHg 57%
11:00 +29°C° 0 mm 4 mps 745 mmHg 53%
12:00 +29°C° 0 mm 4 mps 745 mmHg 49%
13:00 +29°C° 0 mm 3 mps 744 mmHg 50%
14:00 +29°C° 0 mm 3 mps 744 mmHg 51%
15:00 +29°C° 0 mm 2 mps 744 mmHg 51%
16:00 +28°C° 0.3 mm 3 mps 744 mmHg 58%
17:00 +27°C° 0.3 mm 3 mps 744 mmHg 65%
18:00 +26°C° 0.3 mm 4 mps 744 mmHg 71%
19:00 +23°C° 0.8 mm 4 mps 744 mmHg 78%
20:00 +20°C° 0.8 mm 4 mps 745 mmHg 85%
21:00 +18°C° 0.8 mm 3 mps 746 mmHg 92%
22:00 +17°C° 0 mm 4 mps 746 mmHg 92%
23:00 +17°C° 0 mm 4 mps 747 mmHg 92%

Day after tomorrow, 17 June, Thursday

Time Temperature Precipitation Wind Pressure Humidity
00:00 +15°C° 0 mm 4 mps 748 mmHg 93%
01:00 +15°C° 0 mm 4 mps 748 mmHg 93%
02:00 +14°C° 0 mm 3 mps 749 mmHg 93%
03:00 +13°C° 0 mm 3 mps 749 mmHg 93%
04:00 +13°C° 0 mm 3 mps 750 mmHg 89%
05:00 +14°C° 0 mm 3 mps 750 mmHg 84%
06:00 +16°C° 0 mm 3 mps 751 mmHg 80%
07:00 +17°C° 0 mm 3 mps 751 mmHg 72%
08:00 +18°C° 0 mm 3 mps 752 mmHg 64%
09:00 +19°C° 0 mm 3 mps 752 mmHg 56%
10:00 +20°C° 0 mm 4 mps 752 mmHg 51%
11:00 +21°C° 0 mm 4 mps 752 mmHg 47%
12:00 +22°C° 0 mm 5 mps 752 mmHg 42%
13:00 +23°C° 0 mm 4 mps 752 mmHg 41%
14:00 +23°C° 0 mm 4 mps 752 mmHg 41%
15:00 +23°C° 0 mm 4 mps 753 mmHg 41%
16:00 +22°C° 0 mm 4 mps 753 mmHg 47%
17:00 +21°C° 0 mm 3 mps 753 mmHg 53%
18:00 +20°C° 0 mm 2 mps 753 mmHg 59%
19:00 +19°C° 0 mm 2 mps 754 mmHg 63%
20:00 +17°C° 0 mm 2 mps 754 mmHg 67%
21:00 +16°C° 0 mm 2 mps 754 mmHg 71%
22:00 +16°C° 0 mm 2 mps 755 mmHg 69%
23:00 +16°C° 0 mm 2 mps 755 mmHg 66%

18 June, Friday

Time Temperature Precipitation Wind Pressure Humidity
00:00 +16°C° 0 mm 3 mps 755 mmHg 64%
01:00 +15°C° 0 mm 2 mps 756 mmHg 67%
02:00 +13°C° 0 mm 2 mps 756 mmHg 70%
03:00 +12°C° 0 mm 2 mps 757 mmHg 73%
04:00 +13°C° 0 mm 2 mps 757 mmHg 70%
05:00 +14°C° 0 mm 2 mps 757 mmHg 67%
06:00 +15°C° 0 mm 2 mps 758 mmHg 64%
07:00 +16°C° 0 mm 3 mps 758 mmHg 57%
08:00 +18°C° 0 mm 3 mps 758 mmHg 51%
09:00 +19°C° 0 mm 4 mps 758 mmHg 45%
10:00 +20°C° 0 mm 4 mps 758 mmHg 43%
11:00 +21°C° 0 mm 3 mps 758 mmHg 40%
12:00 +21°C° 0 mm 3 mps 758 mmHg 38%
13:00 +22°C° 0 mm 3 mps 758 mmHg 38%
14:00 +22°C° 0 mm 3 mps 758 mmHg 38%
15:00 +22°C° 0 mm 3 mps 758 mmHg 38%
16:00 +23°C° 0 mm 2 mps 758 mmHg 43%
17:00 +23°C° 0 mm 2 mps 758 mmHg 49%
18:00 +22°C° 0 mm 1 mps 758 mmHg 55%
19:00 +21°C° 0 mm 1 mps 758 mmHg 57%
20:00 +19°C° 0 mm 1 mps 758 mmHg 59%
21:00 +16°C° 0 mm 1 mps 758 mmHg 61%
22:00 +16°C° 0 mm 2 mps 759 mmHg 63%
23:00 +15°C° 0 mm 2 mps 759 mmHg 66%

19 June, Saturday

Time Temperature Precipitation Wind Pressure Humidity
00:00 +15°C° 0 mm 2 mps 759 mmHg 69%
01:00 +14°C° 0 mm 2 mps 759 mmHg 75%
02:00 +14°C° 0 mm 2 mps 758 mmHg 80%
03:00 +14°C° 0 mm 2 mps 758 mmHg 86%
04:00 +14°C° 0 mm 3 mps 758 mmHg 83%
05:00 +16°C° 0 mm 3 mps 759 mmHg 80%
06:00 +18°C° 0 mm 4 mps 759 mmHg 77%
07:00 +20°C° 0 mm 4 mps 758 mmHg 72%
08:00 +22°C° 0 mm 5 mps 758 mmHg 66%
09:00 +23°C° 0 mm 5 mps 758 mmHg 61%
10:00 +25°C° 0 mm 5 mps 757 mmHg 59%
11:00 +26°C° 0 mm 6 mps 757 mmHg 56%
12:00 +27°C° 0 mm 6 mps 756 mmHg 54%
13:00 +28°C° 0 mm 6 mps 756 mmHg 55%
14:00 +28°C° 0 mm 7 mps 756 mmHg 55%
15:00 +29°C° 0 mm 7 mps 755 mmHg 56%
16:00 +28°C° 0 mm 7 mps 755 mmHg 60%
17:00 +27°C° 0 mm 6 mps 755 mmHg 64%
18:00 +26°C° 0 mm 6 mps 755 mmHg 69%
19:00 +24°C° 0 mm 6 mps 755 mmHg 72%
20:00 +23°C° 0 mm 5 mps 755 mmHg 75%
21:00 +22°C° 0 mm 5 mps 755 mmHg 78%
22:00 +21°C° 0 mm 4 mps 755 mmHg 82%
23:00 +20°C° 0 mm 4 mps 755 mmHg 85%

20 June, Sunday

Time Temperature Precipitation Wind Pressure Humidity
00:00 +19°C° 0 mm 3 mps 755 mmHg 89%
01:00 +18°C° 0 mm 3 mps 755 mmHg 90%
02:00 +18°C° 0 mm 3 mps 755 mmHg 91%
03:00 +17°C° 0 mm 3 mps 756 mmHg 92%
04:00 +18°C° 0 mm 3 mps 756 mmHg 88%
05:00 +19°C° 0 mm 3 mps 756 mmHg 84%
06:00 +21°C° 0 mm 3 mps 756 mmHg 79%
07:00 +22°C° 0 mm 3 mps 756 mmHg 74%
08:00 +24°C° 0 mm 2 mps 756 mmHg 68%
09:00 +26°C° 0 mm 2 mps 756 mmHg 63%
10:00 +27°C° 0 mm 2 mps 756 mmHg 59%
11:00 +28°C° 0 mm 3 mps 756 mmHg 56%
12:00 +29°C° 0 mm 3 mps 756 mmHg 53%
13:00 +29°C° 0.1 mm 3 mps 756 mmHg 54%
14:00 +28°C° 0.1 mm 3 mps 756 mmHg 56%
15:00 +28°C° 0.1 mm 3 mps 756 mmHg 58%
16:00 +28°C° 0.3 mm 3 mps 755 mmHg 62%
17:00 +27°C° 0.3 mm 2 mps 755 mmHg 66%
18:00 +27°C° 0.3 mm 2 mps 755 mmHg 70%
19:00 +25°C° 0.3 mm 2 mps 755 mmHg 76%
20:00 +23°C° 0.3 mm 2 mps 755 mmHg 81%
21:00 +20°C° 0.3 mm 2 mps 755 mmHg 86%
22:00 +20°C° 0.2 mm 2 mps 755 mmHg 87%
23:00 +19°C° 0.2 mm 2 mps 755 mmHg 88%
Show more